W3TMB Weather Reports


time (UTC)temp
F
wind
direction
speed
knots
gust
knots
rain 1hr
in
rain 24hr
in
rain mn
in
humidity
%
barometer
mb
20260507115306 47 336 1.7 2.6 0.00 0.00 0.00 81 1010.8
20260507114759 46 275 1.7 2.6 0.00 0.00 0.00 81 1010.8
20260507114256 46 323 1.7 2.6 0.00 0.00 0.00 81 1010.9
20260507113754 46 335 0.9 2.6 0.00 0.00 0.00 82 1010.8
20260507113250 45 346 0.0 0.9 0.00 0.00 0.00 84 1010.9
20260507112748 45 295 1.7 2.6 0.00 0.00 0.00 84 1010.9
20260507112245 44 334 0.0 0.9 0.00 0.00 0.00 85 1010.8
20260507111743 44 335 0.0 0.9 0.00 0.00 0.00 86 1010.8
20260507111239 43 351 0.9 0.9 0.00 0.00 0.00 87 1010.8
20260507110735 43 356 0.9 1.7 0.00 0.00 0.00 88 1010.7
20260507110232 42 336 0.0 0.9 0.00 0.00 0.00 90 1010.7
20260507105728 42 310 0.0 0.0 0.00 0.00 0.00 91 1010.6
20260507105225 42 354 0.0 0.0 0.00 0.00 0.00 94 1010.5
20260507104722 40 349 0.0 0.0 0.00 0.00 0.00 97 1010.4
20260507104219 39 338 0.0 0.9 0.00 0.00 0.00 98 1010.4
20260507103714 39 352 0.0 0.0 0.00 0.00 0.00 99 1010.5
20260507103211 38 342 0.0 0.0 0.00 0.00 0.00 99 1010.5
20260507102707 38 338 0.0 0.0 0.00 0.00 0.00 99 1010.2
20260507102204 38 338 0.0 0.0 0.00 0.00 0.00 99 1010.3
20260507101700 38 335 0.0 0.0 0.00 0.00 0.00 99 1010.1
20260507101155 38 338 0.0 0.0 0.00 0.00 0.00 98 1010.2
20260507100653 38 338 0.0 0.0 0.00 0.00 0.00 98 1010.1
20260507100151 38 338 0.0 0.0 0.00 0.00 0.00 98 1010.1
20260507095649 38 337 0.0 0.0 0.00 0.00 0.00 98 1010.3
20260507095145 38 338 0.0 0.0 0.00 0.00 0.00 98 1010.0
20260507094642 39 338 0.0 0.0 0.00 0.00 0.00 97 1010.3
20260507094139 39 337 0.0 0.0 0.00 0.00 0.00 97 1010.0
20260507093636 39 352 0.0 0.9 0.00 0.00 0.00 97 1009.9
20260507093135 39 352 0.0 0.9 0.00 0.00 0.00 97 1010.2
20260507092631 39 336 0.0 0.9 0.00 0.00 0.00 97 1010.1
20260507092127 39 350 0.0 0.0 0.00 0.00 0.00 96 1010.1
20260507091624 39 356 0.0 0.9 0.00 0.00 0.00 96 1010.1
20260507091120 40 321 0.0 0.0 0.00 0.00 0.00 96 1010.0
20260507090616 40 321 0.0 0.0 0.00 0.00 0.00 95 1009.9
20260507090114 41 321 0.0 0.0 0.00 0.00 0.00 95 1009.8
20260507085610 40 321 0.0 0.0 0.00 0.00 0.00 94 1009.7
20260507085107 41 321 0.0 0.0 0.00 0.00 0.00 93 1009.9
20260507084604 41 321 0.0 0.0 0.00 0.00 0.00 92 1009.8
20260507084101 41 321 0.0 0.0 0.00 0.00 0.00 91 1010.0
20260507083557 42 321 0.0 0.0 0.00 0.00 0.00 90 1009.9
20260507083054 42 321 0.0 0.0 0.00 0.00 0.00 89 1009.9
20260507082550 43 321 0.0 0.0 0.00 0.00 0.00 88 1009.9
20260507082047 43 321 0.0 0.9 0.00 0.00 0.00 87 1009.7
20260507081543 43 321 0.9 0.9 0.00 0.00 0.00 87 1009.8
20260507081040 43 321 0.0 0.9 0.00 0.00 0.00 87 1010.0
20260507080536 44 321 0.0 0.0 0.00 0.00 0.00 87 1009.7
20260507080033 44 321 0.0 0.0 0.00 0.00 0.00 87 1009.9
20260507075528 45 321 0.0 0.0 0.00 0.00 0.00 86 1009.8
20260507075025 45 321 0.0 0.0 0.00 0.00 0.00 84 1009.8
20260507074521 46 321 0.0 0.0 0.00 0.00 0.00 83 1009.8
20260507074020 46 321 0.0 0.0 0.00 0.00 0.00 82 1009.8
20260507073516 46 320 0.0 0.9 0.00 0.00 0.00 82 1009.8
20260507073012 46 321 0.9 0.9 0.00 0.00 0.00 83 1009.6
20260507072510 46 324 0.0 0.0 0.00 0.00 0.00 85 1009.8
20260507072007 46 324 0.0 0.0 0.00 0.00 0.00 85 1009.6
20260507071504 46 324 0.0 0.0 0.00 0.00 0.00 85 1009.8
20260507071001 46 324 0.0 0.9 0.00 0.00 0.00 85 1009.9
20260507070458 46 324 0.0 0.9 0.00 0.00 0.00 84 1009.9
20260507065954 46 324 0.0 0.0 0.00 0.00 0.00 85 1009.6
20260507065451 46 324 0.0 0.9 0.00 0.00 0.00 85 1009.6
20260507064948 46 323 0.0 0.9 0.00 0.00 0.00 86 1009.7
20260507064447 46 325 0.0 0.0 0.00 0.00 0.00 87 1009.8
20260507063944 45 325 0.0 0.0 0.00 0.00 0.00 87 1009.7
20260507063441 45 325 0.0 0.0 0.00 0.00 0.00 87 1009.8
20260507062938 46 325 0.0 0.9 0.00 0.00 0.00 87 1009.8
20260507062435 46 325 0.9 0.9 0.00 0.00 0.00 85 1009.7
20260507061932 46 324 0.0 0.9 0.00 0.00 0.00 83 1009.6
20260507061430 46 324 0.0 0.0 0.00 0.00 0.00 82 1009.7
20260507060929 47 324 0.0 0.9 0.00 0.00 0.00 82 1009.9
20260507060425 47 326 0.0 0.9 0.00 0.00 0.00 83 1009.9
20260507055922 47 321 0.0 0.0 0.00 0.00 0.00 81 1009.9
20260507055417 47 326 0.0 0.0 0.00 0.00 0.00 83 1009.8
20260507054914 48 326 0.0 0.0 0.00 0.00 0.00 81 1010.0
20260507054410 48 326 0.0 0.9 0.00 0.00 0.00 79 1009.9
20260507053908 48 326 0.0 0.0 0.00 0.00 0.00 78 1009.8
20260507053405 49 326 0.0 0.9 0.00 0.00 0.00 76 1009.9
20260507052904 49 336 0.0 0.9 0.00 0.00 0.00 75 1009.6
20260507052400 50 329 0.0 0.9 0.00 0.00 0.00 75 1009.6
20260507051858 50 313 0.0 0.9 0.00 0.00 0.00 73 1009.8
20260507051355 50 267 0.9 1.7 0.00 0.00 0.00 73 1010.0
20260507050852 50 317 0.9 1.7 0.00 0.00 0.00 73 1009.9
20260507050348 50 292 0.9 1.7 0.00 0.00 0.00 73 1009.9
20260507045845 50 344 1.7 1.7 0.00 0.00 0.00 74 1009.7
20260507045342 50 324 0.9 2.6 0.00 0.00 0.00 74 1009.8
20260507044839 50 305 1.7 2.6 0.00 0.00 0.00 75 1009.4
20260507044335 50 345 0.9 2.6 0.00 0.00 0.00 76 1009.5
20260507043831 50 290 0.0 0.9 0.00 0.00 0.00 78 1009.6
20260507043328 51 333 0.0 0.9 0.00 0.00 0.00 78 1009.5
20260507042824 50 323 0.9 2.6 0.00 0.00 0.00 78 1009.5
20260507042320 50 327 0.0 0.9 0.00 0.00 0.00 81 1009.5
20260507041817 50 324 0.9 1.7 0.00 0.00 0.00 83 1009.6
20260507041314 50 241 1.7 2.6 0.00 0.00 0.00 85 1009.5
20260507040811 49 332 0.0 0.9 0.00 0.00 0.00 90 1009.6
20260507040307 49 330 0.0 0.9 0.00 0.00 0.00 93 1009.6
20260507035803 50 336 0.0 0.0 0.00 0.28 0.28 94 1009.5
20260507035258 50 336 0.0 0.0 0.00 0.28 0.28 94 1009.4
20260507034757 50 336 0.0 0.0 0.00 0.28 0.28 94 1009.1
20260507034253 49 336 0.0 0.0 0.00 0.28 0.28 94 1009.4
20260507033752 49 336 0.0 0.0 0.00 0.28 0.28 94 1009.2
20260507033249 49 336 0.0 0.0 0.00 0.28 0.28 94 1009.5
20260507032745 49 336 0.0 0.0 0.00 0.28 0.28 94 1009.6
20260507032242 49 335 0.0 0.0 0.00 0.28 0.28 94 1009.4
20260507031738 49 336 0.0 0.0 0.00 0.28 0.28 94 1009.4
20260507031235 49 336 0.0 0.0 0.00 0.28 0.28 95 1009.7
20260507030732 49 336 0.0 0.0 0.00 0.28 0.28 95 1009.4
20260507030229 49 335 0.0 0.9 0.00 0.28 0.28 95 1009.3
20260507025727 48 344 0.0 0.0 0.00 0.28 0.28 95 1009.2
20260507025223 48 353 0.0 0.0 0.00 0.28 0.28 94 1009.0
20260507024722 48 353 0.0 0.0 0.00 0.28 0.28 94 1009.1
20260507024219 49 352 0.0 0.0 0.00 0.28 0.28 94 1009.1
20260507023714 49 351 0.0 0.0 0.00 0.28 0.28 94 1009.4
20260507023211 50 351 0.0 0.0 0.00 0.28 0.28 93 1009.2
20260507022709 50 350 0.0 0.0 0.00 0.28 0.28 92 1009.2
20260507022204 50 6 0.0 0.0 0.00 0.28 0.28 92 1009.0
20260507021701 51 357 0.0 0.0 0.00 0.28 0.28 92 1009.3
20260507021156 51 355 0.0 0.0 0.00 0.28 0.28 92 1009.3
20260507020655 51 355 0.0 0.0 0.00 0.28 0.28 92 1009.6
20260507020150 51 5 0.0 0.0 0.00 0.28 0.28 92 1009.3
20260507015649 51 345 0.0 0.0 0.00 0.28 0.28 92 1009.6
20260507015146 51 348 0.0 0.0 0.00 0.28 0.28 92 1009.4
20260507014642 51 344 0.0 0.9 0.00 0.28 0.28 92 1009.9
20260507014138 52 350 0.9 1.7 0.00 0.28 0.28 91 1009.4
20260507013635 52 342 0.0 0.0 0.00 0.28 0.28 91 1009.2
20260507013132 52 342 0.0 0.0 0.00 0.28 0.28 91 1009.5
20260507012630 53 348 0.0 0.0 0.00 0.28 0.28 89 1009.3
20260507012125 53 1 0.9 0.9 0.00 0.28 0.28 88 1009.3
20260507011624 53 346 0.0 0.9 0.00 0.28 0.28 87 1009.5
20260507011119 53 343 0.0 0.0 0.00 0.28 0.28 90 1009.4
20260507010614 53 330 0.0 0.9 0.00 0.28 0.28 89 1009.7
20260507010110 53 336 0.0 0.0 0.00 0.28 0.28 89 1009.5
20260507005608 53 336 0.0 0.0 0.00 0.28 0.28 89 1009.3
20260507005104 53 335 0.0 0.9 0.00 0.28 0.28 91 1009.2
20260507004601 53 341 0.0 0.0 0.00 0.28 0.28 91 1009.1
20260507004058 54 294 0.0 0.9 0.00 0.28 0.28 92 1009.2
20260507003554 54 282 0.9 1.7 0.00 0.28 0.28 91 1009.0
20260507003049 54 334 0.0 0.0 0.00 0.28 0.28 91 1009.0
20260507002546 54 343 0.0 0.0 0.00 0.28 0.28 91 1008.8
20260507002042 54 343 0.0 0.0 0.00 0.28 0.28 91 1008.9
20260507001539 54 344 0.0 0.0 0.00 0.28 0.28 91 1008.6
20260507001037 54 344 0.0 0.0 0.00 0.28 0.28 90 1008.5
20260507000533 54 345 0.0 0.0 0.00 0.28 0.28 90 1008.1
20260507000028 54 345 0.0 0.0 0.00 0.28 0.28 90 1008.3
20260506235526 54 344 0.0 0.0 0.00 0.28 0.28 90 1008.4
20260506235021 54 346 0.0 0.0 0.00 0.28 0.28 90 1008.0
20260506234519 54 346 0.0 0.0 0.00 0.28 0.28 90 1008.0
20260506234016 54 346 0.0 0.0 0.00 0.28 0.28 90 1007.9
20260506233513 54 0 0.0 0.9 0.00 0.28 0.28 90 1008.0
20260506233010 54 358 0.0 0.9 0.00 0.28 0.28 90 1008.0
20260506232506 54 46 0.9 1.7 0.00 0.28 0.28 89 1007.7
20260506232001 54 12 0.9 0.9 0.00 0.28 0.28 89 1007.5
20260506231459 54 353 0.0 0.9 0.00 0.28 0.28 89 1007.6
20260506230956 54 354 0.0 4.3 0.00 0.28 0.28 89 1007.8
20260506230452 54 9 0.0 1.7 0.00 0.28 0.28 89 1007.7
20260506225949 54 31 2.6 2.6 0.00 0.28 0.28 89 1007.7
20260506225447 55 52 1.7 2.6 0.00 0.28 0.28 89 1007.5
20260506224943 55 57 1.7 1.7 0.00 0.28 0.28 89 1007.6
20260506224441 55 16 0.9 1.7 0.00 0.28 0.28 89 1007.4
20260506223937 55 30 0.9 4.3 0.00 0.28 0.28 88 1007.3
20260506223432 55 40 0.9 2.6 0.00 0.28 0.28 88 1007.2
20260506222930 55 75 2.6 2.6 0.00 0.28 0.28 88 1007.2
20260506222426 55 356 0.0 1.7 0.00 0.28 0.28 88 1007.2
20260506221923 55 60 0.9 1.7 0.00 0.28 0.28 88 1007.4
20260506221420 55 46 0.9 2.6 0.00 0.28 0.28 88 1007.4
20260506220918 55 68 2.6 2.6 0.00 0.28 0.28 88 1007.4
20260506220413 55 108 1.7 2.6 0.00 0.28 0.28 88 1007.3
20260506215910 55 0 0.9 4.3 0.00 0.28 0.28 87 1007.3
20260506215407 55 93 0.9 1.7 0.00 0.28 0.28 87 1007.0
20260506214902 55 2 0.0 2.6 0.00 0.28 0.28 87 1007.3
20260506214359 56 11 0.0 1.7 0.00 0.28 0.28 87 1006.7
20260506213857 56 101 0.9 1.7 0.00 0.28 0.28 87 1006.5
20260506213354 56 357 0.0 0.9 0.00 0.28 0.28 87 1006.2
20260506212852 56 356 2.6 2.6 0.00 0.28 0.28 87 1006.3
20260506212347 57 279 0.9 0.9 0.00 0.28 0.28 87 1006.1
20260506211842 57 49 2.6 2.6 0.00 0.28 0.28 87 1006.0
20260506211339 57 354 0.9 2.6 0.00 0.28 0.28 87 1005.8
20260506210836 57 48 3.5 4.3 0.00 0.28 0.28 87 1005.6
20260506210333 57 3 4.3 5.2 0.00 0.28 0.28 87 1005.8
20260506205830 57 45 1.7 5.2 0.00 0.28 0.28 87 1005.4
20260506205326 58 0 5.2 7.0 0.00 0.28 0.28 87 1005.4
20260506204823 58 32 7.0 11.3 0.00 0.28 0.28 87 1005.3
20260506204320 58 42 4.3 8.7 0.00 0.28 0.28 87 1005.0
20260506203818 59 297 4.3 11.3 0.00 0.28 0.28 87 1005.1
20260506203315 59 32 3.5 6.1 0.00 0.28 0.28 87 1004.9
20260506202812 60 10 4.3 7.8 0.00 0.28 0.28 87 1005.0
20260506202309 62 359 2.6 7.8 0.00 0.28 0.28 86 1004.7
20260506201805 63 346 0.0 0.9 0.00 0.28 0.28 88 1004.4
20260506201302 63 308 0.9 1.7 0.00 0.28 0.28 88 1004.4
20260506200759 63 337 0.9 2.6 0.00 0.28 0.28 89 1004.3
20260506200255 62 325 0.9 4.3 0.00 0.28 0.28 89 1004.3
20260506195752 62 300 0.9 4.3 0.00 0.28 0.28 90 1004.2
20260506195248 62 314 0.9 1.7 0.00 0.28 0.28 92 1004.1
20260506194746 62 355 0.9 1.7 0.00 0.28 0.28 92 1003.9
20260506194242 62 322 0.9 1.7 0.00 0.28 0.28 92 1004.1
20260506193740 62 344 0.9 1.7 0.00 0.28 0.28 92 1004.1
20260506193236 62 337 0.0 4.3 0.00 0.28 0.28 91 1004.0
20260506192733 62 290 0.9 1.7 0.00 0.28 0.28 91 1004.2
20260506192230 62 287 1.7 2.6 0.00 0.28 0.28 91 1004.2
20260506191727 62 258 1.7 1.7 0.00 0.28 0.28 91 1004.2
20260506191223 63 317 1.7 2.6 0.00 0.28 0.28 92 1004.2
20260506190720 62 330 1.7 4.3 0.00 0.28 0.28 93 1004.3
20260506190217 62 350 0.9 1.7 0.00 0.28 0.28 93 1004.1
20260506185715 62 300 0.9 1.7 0.00 0.28 0.28 93 1004.1
20260506185210 62 330 0.0 1.7 0.00 0.28 0.28 94 1004.0
20260506184708 62 245 2.6 4.3 0.00 0.28 0.28 94 1004.0
20260506184205 62 276 1.7 2.6 0.00 0.28 0.28 95 1004.1
20260506183701 62 344 0.0 1.7 0.00 0.28 0.28 95 1004.3
20260506183157 62 354 0.9 1.7 0.00 0.28 0.28 96 1004.1
20260506182655 62 327 1.7 1.7 0.00 0.28 0.28 95 1004.0
20260506182151 62 305 0.9 1.7 0.00 0.28 0.28 95 1004.0
20260506181644 62 289 0.9 1.7 0.00 0.28 0.28 95 1004.1
20260506181141 62 319 0.9 1.7 0.00 0.28 0.28 95 1004.2
20260506180638 61 337 0.0 0.9 0.00 0.28 0.28 96 1004.3
20260506180134 61 335 0.0 0.9 0.00 0.28 0.28 97 1004.1
20260506175630 61 329 0.0 0.9 0.00 0.28 0.28 97 1004.3
20260506175126 61 329 0.9 1.7 0.00 0.28 0.28 99 1004.2
20260506174626 60 343 0.0 1.7 0.00 0.28 0.28 99 1004.1
20260506174122 60 302 1.7 1.7 0.00 0.28 0.28 99 1004.0
20260506173620 60 333 0.9 0.9 0.00 0.28 0.28 99 1003.9
20260506173116 60 331 0.0 1.7 0.00 0.28 0.28 99 1004.3
20260506172614 60 325 0.9 1.7 0.00 0.28 0.28 99 1004.2
20260506172109 60 283 0.9 0.9 0.00 0.28 0.28 99 1003.8
20260506171608 60 326 0.0 0.9 0.00 0.28 0.28 99 1004.1
20260506171105 60 336 0.0 0.9 0.00 0.28 0.28 99 1004.1
20260506170602 61 352 0.0 0.9 0.00 0.28 0.28 99 1004.0
20260506170059 62 16 0.9 0.9 0.00 0.28 0.28 99 1004.1
20260506165558 61 345 0.0 0.9 0.00 0.28 0.28 99 1004.2
20260506165054 60 349 0.0 0.9 0.00 0.28 0.28 99 1004.1
20260506164551 60 345 0.0 0.0 0.00 0.28 0.28 99 1004.2
20260506164048 59 355 0.0 0.0 0.00 0.28 0.28 99 1004.1
20260506163543 59 325 0.0 0.9 0.00 0.28 0.28 99 1004.3
20260506163040 59 357 0.0 0.9 0.00 0.28 0.28 99 1004.3
20260506162536 59 7 0.0 0.0 0.00 0.28 0.28 99 1004.4
20260506162033 59 342 0.0 0.9 0.00 0.28 0.28 99 1004.4
20260506161531 58 30 0.0 0.9 0.00 0.28 0.28 99 1004.2
20260506161028 58 0 0.0 1.7 0.00 0.28 0.28 99 1004.1
20260506160526 58 8 0.0 1.7 0.00 0.28 0.28 99 1004.5
20260506160022 59 356 0.0 0.0 0.00 0.28 0.28 99 1004.4
20260506155521 59 351 0.0 0.0 0.00 0.28 0.28 99 1004.1
20260506153652 59 348 0.0 0.9 0.00 0.28 0.28 99 1004.3
20260506153149 58 354 0.0 0.0 0.00 0.28 0.28 99 1004.2
20260506152646 59 355 0.0 0.0 0.00 0.28 0.28 99 1004.2
20260506152144 58 353 0.0 0.0 0.00 0.28 0.28 99 1004.3
20260506151642 58 349 0.0 0.0 0.00 0.28 0.28 99 1004.3
20260506151138 58 356 0.0 0.9 0.00 0.28 0.28 99 1004.1
20260506150635 58 347 0.0 0.0 0.00 0.28 0.28 99 1004.1
20260506150132 58 351 0.0 0.0 0.00 0.28 0.28 99 1004.1
20260506145629 58 349 0.0 0.0 0.00 0.28 0.28 99 1004.3
20260506145126 58 355 0.0 0.0 0.05 0.28 0.28 99 1004.3
20260506144624 58 352 0.0 0.0 0.05 0.28 0.28 99 1004.3
20260506144120 58 356 0.0 0.0 0.00 0.27 0.27 99 1004.1
20260506143618 58 354 0.0 0.0 0.07 0.27 0.27 99 1004.1
20260506143116 57 9 0.0 0.9 0.00 0.26 0.26 99 1004.1
20260506142614 57 0 0.0 0.0 0.05 0.26 0.26 99 1004.4
20260506142112 58 353 0.0 0.0 0.05 0.26 0.26 99 1004.1
20260506141609 58 356 0.0 0.0 0.00 0.25 0.25 99 1004.0
20260506141107 57 339 0.0 0.9 0.00 0.25 0.25 99 1003.9
20260506140604 57 4 0.0 0.0 0.00 0.25 0.25 99 1004.1
20260506135558 57 2 0.0 0.0 0.07 0.25 0.25 99 1004.0
20260506135054 57 344 0.0 0.0 0.05 0.24 0.24 99 1004.2
20260506134551 57 352 0.0 0.0 0.12 0.24 0.24 99 1004.3
20260506134047 57 345 0.0 1.7 0.12 0.22 0.22 99 1004.4
20260506133544 58 329 0.0 0.9 0.24 0.21 0.21 99 1004.6
20260506133041 58 337 0.0 0.0 0.24 0.19 0.19 99 1004.3
20260506132539 58 0 0.0 0.0 0.12 0.17 0.17 99 1004.6
20260506132036 58 4 0.0 0.9 0.00 0.15 0.15 99 1004.3
20260506131533 58 350 0.0 0.0 0.00 0.15 0.15 99 1004.4
20260506131029 58 355 0.0 0.0 0.00 0.15 0.15 99 1004.3
20260506130526 58 349 0.0 0.0 0.00 0.15 0.15 99 1004.1
20260506130024 58 357 0.0 0.9 0.00 0.15 0.15 99 1004.1
20260506125522 58 353 0.0 0.0 0.00 0.15 0.15 99 1004.4
20260506125019 57 356 0.0 0.0 0.05 0.15 0.15 99 1004.3
20260506124517 57 357 0.0 0.9 0.05 0.15 0.15 99 1004.4
20260506124015 57 356 0.0 0.9 0.07 0.14 0.14 99 1004.4
20260506123512 57 355 1.7 1.7 0.12 0.14 0.14 99 1004.6
20260506123010 57 339 0.0 0.0 0.12 0.13 0.13 99 1004.7
20260506122506 57 21 0.0 0.9 0.12 0.12 0.12 99 1004.7
20260506122005 57 2 0.0 0.9 0.12 0.11 0.11 99 1005.1
20260506121502 57 21 0.9 1.7 0.14 0.10 0.10 99 1005.1
20260506120958 57 6 0.0 0.0 0.12 0.09 0.09 99 1005.1
20260506120456 57 349 0.0 0.0 0.12 0.08 0.08 99 1005.2
20260506115953 57 351 0.0 0.0 0.12 0.07 0.07 99 1004.8
20260506115451 56 346 0.0 0.0 0.05 0.06 0.06 99 1005.3